Billings, MT

10:00 PM MST on February 22, 2017 (GMT -0700)
Billings Logan International

Weather History for KBIL - July, 2012

Change the Weather History Date:

Saturday, July 14, 2012

  Actual Average Record
Temperature  
Mean Temperature 82 °F 73 °F  
Max Temperature 92 °F 87 °F 108 °F (2002)
Min Temperature 72 °F 59 °F 49 °F (1952)
Degree Days  
Heating Degree Days 0 0  
Month to date heating degree days 0 12  
Since 1 June heating degree days 35 108  
Since 1 July heating degree days 0 12  
Cooling Degree Days 17 8  
Month to date cooling degree days 181 99  
Year to date cooling degree days 368 201  
Since 1 June cooling degree days 334 184  
Growing Degree Days 32 (Base 50)    
Moisture  
Dew Point 52 °F    
Average Humidity 38    
Maximum Humidity 50    
Minimum Humidity 25    
Precipitation  
Precipitation T in 0.04 in 0.88 in (1991)
Month to date precipitation 0.16 0.65  
Year to date precipitation 4.55 8.63  
Snow  
Snow 0.00 in 0.00 in T in (2011)
Month to date snowfall 0.0 0.0  
Since 1 June snowfall T 0.0  
Since 1 July snowfall 0.0 0.0  
Snow Depth 0.00 in    
Sea Level Pressure  
Sea Level Pressure 29.80 in    
Wind  
Wind Speed 8 mph (WNW)    
Max Wind Speed 25 mph    
Max Gust Speed 30 mph    
Visibility 10 miles    
Events Rain    
T = Trace of Precipitation, MM = Missing Value Source: NWS Daily Summary

Daily Weather History Graph

Daily Weather History Graph

Search for Another Location

Airport or City:

Trip Planner

Search our weather history database for the weather conditions in past years. The results will help you decide how hot, cold, wet, or windy it might be!

Date:

Astronomy

Jul. 14, 2012 Rise Set
Actual Time 5:38 AM MDT 9:01 PM MDT
Civil Twilight 5:01 AM MDT 9:37 PM MDT
Nautical Twilight 4:13 AM MDT 10:25 PM MDT
Astronomical Twilight 3:11 AM MDT 11:26 PM MDT
Moon 1:56 AM MDT (7/14) 5:28 PM MDT (7/14)
Length of Visible Light 16h 36m
Length of Day
15h 22m
Waning Crescent, 18% of the Moon is Illuminated
Jul 14
Waning Crescent
Jul 18
New
Jul 26
First Quarter
Aug 1
Full
Aug 9
Last Quarter

Hourly Weather History & Observations

Time (MDT) Temp. Heat Index Dew Point Humidity Pressure Visibility Wind Dir Wind Speed Gust Speed Precip Events Conditions
12:53 AM 77.0 °F - 57.0 °F 50% 29.86 in 10.0 mi NNW 8.1 mph - N/A   Scattered Clouds
1:53 AM 77.0 °F - 50.0 °F 39% 29.86 in 10.0 mi NNW 5.8 mph - N/A   Scattered Clouds
2:53 AM 77.0 °F - 48.0 °F 36% 29.83 in 10.0 mi North 8.1 mph - N/A   Partly Cloudy
3:53 AM 75.2 °F - 48.2 °F 38% 29.97 in 10.0 mi NNE 5.8 mph - N/A   Scattered Clouds
4:53 AM 75.0 °F - 51.1 °F 43% 29.83 in 10.0 mi East 8.1 mph - N/A   Scattered Clouds
5:53 AM 75.0 °F - 51.1 °F 43% 29.83 in 10.0 mi NNE 4.6 mph - N/A   Mostly Cloudy
6:53 AM 73.9 °F - 53.1 °F 48% 29.85 in 10.0 mi North 3.5 mph - N/A   Scattered Clouds
7:53 AM 78.1 °F - 52.0 °F 40% 29.85 in 10.0 mi Calm Calm - N/A   Partly Cloudy
8:53 AM 80.1 °F - 52.0 °F 38% 29.84 in 10.0 mi Calm Calm - N/A   Partly Cloudy
9:53 AM 82.0 °F - 52.0 °F 35% 29.83 in 10.0 mi Variable 3.5 mph - N/A   Partly Cloudy
10:53 AM 82.0 °F - 52.0 °F 35% 29.83 in 10.0 mi SW 6.9 mph - N/A   Partly Cloudy
11:53 AM 84.0 °F - 52.0 °F 33% 29.82 in 10.0 mi SW 4.6 mph - N/A   Partly Cloudy
12:53 PM 87.1 °F - 51.1 °F 29% 29.80 in 10.0 mi SW 5.8 mph - N/A   Scattered Clouds
1:53 PM 86.0 °F 84.0 °F 53.1 °F 32% 29.79 in 10.0 mi SW 4.6 mph - N/A   Scattered Clouds
2:53 PM 91.9 °F - 51.1 °F 25% 29.76 in 10.0 mi West 4.6 mph - N/A   Scattered Clouds
3:53 PM 91.0 °F - 50.0 °F 24% 29.75 in 10.0 mi WSW 10.4 mph - N/A   Mostly Cloudy
4:53 PM 90.0 °F - 52.0 °F 27% 29.75 in 10.0 mi West 16.1 mph 25.3 mph N/A   Scattered Clouds
5:53 PM 90.0 °F - 52.0 °F 27% 29.74 in 10.0 mi NW 23.0 mph - N/A   Partly Cloudy
6:53 PM 82.0 °F 81.3 °F 54.0 °F 38% 29.74 in 10.0 mi NW 19.6 mph - N/A   Partly Cloudy
7:53 PM 82.9 °F 81.9 °F 54.0 °F 37% 29.73 in 10.0 mi NNW 13.8 mph - N/A   Partly Cloudy
8:53 PM 80.1 °F 80.0 °F 54.0 °F 40% 29.73 in 10.0 mi NW 10.4 mph - N/A   Scattered Clouds
9:53 PM 79.0 °F - 55.0 °F 44% 29.77 in 10.0 mi WSW 10.4 mph - 0.00 in Rain Light Rain
10:53 PM 75.0 °F - 61.0 °F 62% 29.78 in 10.0 mi SSW 5.8 mph - 0.00 in Rain Light Rain
11:53 PM 73.9 °F - 57.0 °F 55% 29.73 in 10.0 mi WNW 12.7 mph - 0.00 in   Mostly Cloudy